OBJECT D, 60015

Orbit data source: Space-Track

You're viewing an Uncataloged Satellite

Recently launched and/or uncataloged satellites may have evolving metadata. Metadata may include but not limited to: Owner, Maufacturer, Bus, Motor, and Mission.

OBJECT D, 60015 is a satellite owned by Xinghe Dongli (CN) in SSO that was launched on Thu, 06 Jun 2024 UTC via a GUSHENXING 1 launch vehicle from the Jiuquan Satellite Launch Center, China (JSC). Unknown objects in Earth's orbit typically refer to objects detected orbiting the Earth but have not yet been identified or cataloged. These objects could be anything from previously untracked satellites, spent rocket stages, debris from satellite collisions, or even natural meteoroids temporarily captured by Earth's gravity.

Loading next visibility...
Identifier
60015, 2024-110D
Orbit
SSO
Last TLE update
9 hours ago
Origin
Manufacturer
Xinghe Dongli
Mission
Spacecraft
Bus & Motor
LSP, EDGE
Mass
20 kg wet, 20 kg dry
Launch date (UTC)
2024-06-06 (11 months ago)
Launch vehicle
GUSHENXING 1
Launch site
Jiuquan Satellite Launch Center, China (JSC)
Object type
Unknown
Shape & HBR
Unknown
Radar Cross Section
Medium (>0.1 m² and <1 m²)

Expand to show TLE details & history

TLE from 9 hours ago
0 OBJECT D
1 60015U 24110D   25128.90601397  .00008985  00000-0  46682-3 0  9992
2 60015  97.5819 219.1756 0011270 212.1931 147.8615 15.16272657 50834
Epoch: 2025-05-08T21:44Z
Definitive object data (Epoch: 2025-05-08T21:44:39.606Z)
Latitude
-0.00003°
Longitude
26.04078°
Altitude
526.782 km
Speed
7.596 km/s
True Right ascension
14h 36m 42s
True Declination
0° 00' 00"
Sunlit
Object was in full shadow at TLE epoch
Visualization TLE readout
Latitude
-63.525°
Longitude
41.83894°
Altitude
540.711 km
Speed
7.591 km/s
Apparent Right ascension
02h 12m 11s
Apparent Declination
-79° 31' 55"
Sunlit
Object is in full shadow
Visualization observer readout
Local Sidereal Time
15:06:43
Azimuth
176.177° S
Elevation
-50.033°
Doppler factor
1
Orbital elements
Apogee altitude
521.864 km
Perigee altitude
506.328 km
Semi-major axis
6,892.233 km
Eccentricity
0.001127
Inclination
97.5819°
RAAN
219.1756°
Arg. of periapsis
212.1931°
True anomaly
147.93012°
Mean anomaly
147.8615°
Eccentric anomaly
147.89582°
Mean motion
3.79318 °/min
BSTAR
0.00046682
Orbital period
94.91 mins
Loading maneuver chart data...
Loading SW <> Apogee altitude chart data...
Loading historical data...
Loading historical data...
Loading historical data...
Loading historical data...
Loading historical data...
Loading historical data...
Loading historical data...
Other satellites on launch #110 in the year 2024 (2024-06-06 UTC)

OBJECT D Visibility forecast

Observer location: undefined°, undefined°

Span
Click to sort rows by Start time (UTC) header in descending order
Start Az.
Max El. time (UTC)
Max El. Az.
Max El.
End time (UTC)
End Az.
6 mins2025-05-09 18:53:48.178Z10.675° NNE2025-05-09 18:56:48.178Z328.042° NNW44.768°2025-05-09 18:59:48.178Z195.452° SSW
5 mins2025-05-10 05:33:48.178Z133.762° SE2025-05-10 05:35:48.178Z90.99° ESE31.043°2025-05-10 05:38:48.178Z10.883° NNE
|